Date,TemperatureHighF,TemperatureAvgF,TemperatureLowF,DewpointHighF,DewpointAvgF,DewpointLowF,HumidityHigh,HumidityAvg,HumidityLow,PressureMaxIn,PressureMinIn,WindSpeedMaxMPH,WindSpeedAvgMPH,GustSpeedMaxMPH,PrecipitationSumIn
2013-1-1,41.5,34.7,24.8,23.1,15.4,5.4,61,45,34,29.77,29.62,13,3,13,0.00
2013-1-2,37.0,24.8,15.4,9.2,3.5,-2.5,52,40,30,29.94,29.77,15,4,15,0.00
2013-1-3,28.9,18.9,10.2,4.5,-3.8,-11.5,51,36,28,30.00,29.88,12,3,12,0.00
2013-1-4,43.5,30.8,15.8,20.3,13.0,2.6,68,48,31,29.88,29.71,17,3,17,0.00
2013-1-5,48.2,34.0,22.1,18.1,13.6,10.7,67,44,28,30.12,29.77,17,3,17,0.00
2013-1-6,41.5,32.7,22.3,34.4,24.0,13.0,85,70,56,30.09,29.83,12,1,12,0.12
2013-1-7,45.9,33.7,22.6,28.2,21.2,14.1,82,61,40,30.30,29.85,20,4,20,0.08
2013-1-8,49.5,37.1,21.9,34.9,25.1,13.6,89,64,39,30.27,30.18,15,3,15,0.20
2013-1-9,48.2,38.8,25.2,42.3,30.8,19.3,85,74,48,30.27,29.91,17,2,17,0.00
2013-1-10,54.7,41.9,30.6,26.9,17.0,11.9,54,37,25,30.39,29.94,20,5,20,0.00
2013-1-11,45.0,37.0,26.8,38.3,24.6,15.3,94,62,41,30.39,30.09,8,2,8,0.08
2013-1-12,48.9,43.9,39.9,46.0,40.0,34.0,98,87,63,30.12,30.00,10,2,10,0.32
2013-1-13,55.0,48.9,44.6,54.5,48.0,41.8,98,97,90,30.03,29.91,10,1,10,0.00
2013-1-14,60.8,57.9,53.6,60.2,57.4,53.0,98,98,98,30.12,29.83,15,3,15,0.00
2013-1-15,60.8,49.7,41.7,60.2,40.2,25.9,98,72,48,30.15,30.06,10,2,10,0.12
2013-1-16,44.1,41.9,39.0,42.7,38.3,28.3,96,88,59,30.09,29.62,13,2,13,0.59
2013-1-17,50.5,41.1,35.4,43.3,26.8,16.6,92,60,35,29.94,29.74,13,3,13,0.00
2013-1-18,36.9,25.1,11.1,23.4,0.9,-11.3,81,38,18,30.36,29.88,24,6,24,0.00
2013-1-19,50.7,40.0,11.1,41.3,22.3,-7.1,76,50,40,30.33,29.83,20,5,20,0.08
2013-1-20,57.0,48.2,32.2,44.9,26.9,2.8,81,45,27,29.83,29.47,17,6,17,0.00
2013-1-21,39.2,30.6,24.8,26.0,6.4,-5.4,80,39,20,29.97,29.65,13,3,13,0.00
2013-1-22,33.6,24.3,14.7,26.2,3.5,-12.9,81,45,20,29.94,29.59,17,6,17,0.00
2013-1-23,23.5,13.7,9.1,-8.0,-14.5,-20.4,34,27,20,30.03,29.91,24,6,24,0.00
2013-1-24,25.2,13.7,4.8,-8.7,-17.9,-24.2,28,22,20,30.06,29.91,23,7,23,0.00
2013-1-25,27.7,18.8,9.3,5.3,-12.0,-21.9,49,25,18,30.18,29.91,15,4,15,0.00
2013-1-26,33.8,21.3,15.3,9.9,0.6,-14.5,64,42,23,30.06,29.83,17,6,17,0.00
2013-1-27,36.0,20.5,10.2,1.1,-6.7,-11.7,39,30,19,30.33,30.06,17,6,17,0.00
2013-1-28,34.0,23.7,8.1,30.4,5.4,-11.8,88,49,20,30.33,29.85,8,1,8,0.00
2013-1-29,38.3,35.8,33.6,36.9,32.4,30.3,96,87,78,30.06,29.85,9,2,9,0.16
2013-1-30,61.3,50.5,37.6,59.2,48.6,36.9,98,94,77,30.03,29.44,28,6,28,0.08
2013-1-31,59.5,50.0,34.7,59.0,33.8,2.3,98,60,24,29.50,28.97,28,8,28,0.12
2013-2-1,39.6,32.0,24.8,5.3,-1.7,-9.5,31,23,17,29.97,29.50,17,6,17,0.00
2013-2-2,37.0,28.2,20.5,19.0,-0.4,-10.1,63,30,18,30.12,29.91,13,4,13,0.00
2013-2-3,36.3,29.4,25.2,20.2,15.5,10.8,67,56,41,29.91,29.56,15,5,15,0.00
2013-2-4,34.3,27.6,22.1,14.8,1.8,-7.5,62,35,20,29.83,29.56,20,6,20,0.00
2013-2-5,32.0,27.3,24.3,26.0,9.5,-0.4,79,48,33,29.91,29.80,8,2,8,0.00
2013-2-6,44.1,34.5,28.4,30.4,17.8,-2.9,84,55,26,30.15,29.77,13,3,13,0.04
2013-2-7,33.8,27.0,21.2,13.6,-0.4,-7.5,51,31,20,30.39,30.15,14,4,14,0.00
2013-2-8,35.1,33.1,29.5,33.3,23.9,13.1,98,71,50,30.36,29.41,23,7,23,0.04
2013-2-9,20.7,20.5,19.8,19.7,19.4,18.3,96,96,94,29.94,29.88,0,0,0,0.04
2013-2-10,38.8,21.7,12.0,38.3,19.9,8.6,98,93,85,30.27,30.00,0,0,0,0.04
2013-2-11,47.3,33.3,11.3,46.8,31.9,7.7,98,94,83,30.24,29.47,13,3,13,0.83
2013-2-12,50.7,41.3,32.9,44.3,26.5,15.8,98,62,27,29.77,29.47,22,5,22,0.00
2013-2-13,48.7,36.3,29.1,23.7,17.8,13.1,69,49,27,29.77,29.53,12,2,12,0.00
2013-2-14,46.9,36.2,26.1,36.1,22.7,12.7,95,62,29,29.91,29.56,15,2,15,0.12
2013-2-15,50.4,35.9,22.6,35.2,24.9,15.3,86,66,37,29.91,29.83,12,2,12,0.12
2013-2-16,42.4,34.4,27.5,35.3,29.9,22.1,98,84,52,29.83,29.50,15,4,15,0.16
2013-2-17,35.8,26.2,20.3,30.6,16.0,-4.3,98,70,29,29.50,29.18,30,13,30,0.80
2013-2-18,36.0,25.6,16.7,1.2,-4.6,-9.1,35,27,17,30.03,29.50,28,9,28,0.00
2013-2-19,47.5,38.0,21.6,46.4,23.5,-0.8,98,59,31,30.03,29.47,17,3,17,0.55
2013-2-20,43.3,35.7,27.3,42.8,15.5,-3.7,98,51,22,29.65,29.44,20,6,20,0.08
2013-2-21,39.2,30.8,26.6,10.5,4.2,0.8,42,32,21,29.97,29.65,22,8,22,0.00
2013-2-22,41.0,35.0,30.7,18.8,15.3,9.2,53,44,34,30.24,29.97,20,6,20,0.00
2013-2-23,41.0,36.8,31.8,39.0,24.4,18.2,98,62,42,30.21,29.71,14,5,14,0.31
2013-2-24,44.1,40.0,34.3,43.5,39.2,33.8,98,97,89,29.71,29.44,15,7,15,0.91
2013-2-25,44.4,35.7,27.0,34.0,25.2,16.9,98,69,38,30.12,29.71,16,2,16,0.24
2013-2-26,49.3,36.0,23.0,35.6,21.1,15.8,77,58,30,30.21,30.00,12,3,12,0.04
2013-2-27,46.6,44.3,40.3,46.0,43.0,29.0,98,95,63,30.00,29.44,31,12,31,0.75
2013-2-28,48.7,42.8,37.9,43.4,36.7,29.4,98,81,49,29.53,29.38,8,1,8,0.00
2013-3-1,47.7,40.9,37.4,36.8,29.1,22.4,89,64,40,29.53,29.35,20,5,20,0.00
2013-3-2,48.2,41.0,36.5,24.7,21.9,18.9,59,47,34,29.53,29.47,13,3,13,0.00
2013-3-3,46.9,39.6,35.6,27.1,20.7,17.8,71,47,34,29.50,29.44,10,2,10,0.00
2013-3-4,46.4,38.6,32.2,28.4,17.6,12.7,78,44,28,29.56,29.44,22,7,22,0.00
2013-3-5,46.4,38.8,32.7,32.0,22.7,14.6,79,54,37,29.91,29.56,21,6,21,0.00
2013-3-6,43.5,39.3,33.6,36.7,32.1,26.4,90,76,52,29.91,29.80,27,10,27,0.04
2013-3-7,38.5,36.9,35.2,36.9,35.6,33.5,98,95,82,29.80,29.74,24,12,24,1.61
2013-3-8,41.4,36.7,34.5,36.3,32.6,22.8,98,87,50,29.94,29.71,15,4,15,1.22
2013-3-9,41.4,38.5,35.8,30.5,26.2,22.8,79,62,50,30.18,29.91,20,7,20,0.04
2013-3-10,47.8,40.0,34.9,32.2,26.2,21.8,84,59,40,30.27,30.18,12,4,12,0.00
2013-3-11,51.1,42.8,37.2,43.5,34.2,29.0,92,72,49,30.21,30.06,12,3,12,0.00
2013-3-12,54.9,50.9,45.0,53.8,48.2,43.4,98,91,72,30.06,29.65,15,6,15,0.63
2013-3-13,56.5,51.2,44.8,55.9,44.5,26.3,98,82,35,29.65,29.59,10,4,10,0.31
2013-3-14,42.8,34.4,26.6,22.6,8.5,-8.2,65,36,21,29.68,29.56,18,5,18,0.31
2013-3-15,42.8,33.3,23.0,17.6,3.6,-8.5,45,29,16,29.74,29.53,23,7,23,0.00
2013-3-16,45.3,37.3,29.3,18.1,10.7,4.4,48,34,20,29.74,29.56,13,3,13,0.00
2013-3-17,46.6,34.5,23.4,21.3,6.5,-3.9,59,34,17,30.15,29.74,20,4,20,0.00
2013-3-18,40.3,32.6,22.8,13.8,4.7,-6.2,42,31,23,30.30,30.09,13,5,13,0.00
2013-3-19,46.0,37.9,32.2,45.5,34.8,13.4,98,89,41,30.12,29.35,22,9,22,0.67
2013-3-20,45.3,35.5,27.0,29.5,14.0,5.2,83,44,22,29.71,29.50,17,5,17,0.00
2013-3-21,44.1,33.3,24.1,31.4,18.7,11.9,92,58,29,29.71,29.44,17,4,17,0.00
2013-3-22,45.9,35.9,29.1,30.7,18.3,8.9,91,53,28,29.62,29.44,13,4,13,0.00
2013-3-23,48.7,38.0,30.2,16.7,10.5,4.4,48,33,19,29.65,29.50,23,7,23,0.00
2013-3-24,53.4,39.4,29.5,19.2,13.6,8.7,54,36,24,29.71,29.62,16,4,16,0.00
2013-3-25,48.9,37.5,27.9,32.3,21.1,14.8,78,53,29,29.65,29.32,25,6,25,0.00
2013-3-26,56.3,41.2,32.7,30.1,19.5,10.0,79,44,20,29.65,29.29,18,6,18,0.00
2013-3-27,58.1,43.0,25.3,31.4,15.9,9.6,69,37,17,29.71,29.62,13,3,13,0.00
2013-3-28,51.1,42.4,37.9,38.5,28.9,19.2,93,62,32,29.88,29.71,15,5,15,0.08
2013-3-29,63.0,46.1,31.3,33.7,25.5,20.4,78,48,24,29.91,29.85,15,3,15,0.00
2013-3-30,59.0,45.5,30.2,33.4,23.9,16.6,78,47,25,29.97,29.88,15,3,15,0.00
2013-3-31,61.9,43.7,24.3,44.4,22.1,12.7,96,47,17,30.00,29.62,17,3,17,0.04
2013-4-1,59.0,49.1,36.9,47.7,34.4,3.7,98,62,24,29.65,29.44,24,6,24,0.31
2013-4-2,45.3,37.0,28.4,9.2,1.8,-5.9,35,23,15,29.85,29.65,17,6,17,0.00
2013-4-3,53.6,39.4,31.6,3.7,-0.5,-5.0,25,19,13,30.03,29.80,17,7,17,0.00
2013-4-4,54.3,40.3,28.0,25.3,7.4,-3.4,58,28,13,30.18,29.97,14,5,14,0.00
2013-4-5,54.1,44.0,38.7,40.1,28.6,19.2,75,55,41,29.97,29.53,13,3,13,0.00
2013-4-6,53.8,39.5,27.0,19.9,6.4,-1.9,48,27,13,30.21,29.71,20,6,20,0.00
2013-4-7,52.2,39.7,21.9,38.0,19.5,6.7,75,46,21,30.21,29.94,15,4,15,0.00
2013-4-8,70.7,54.7,44.2,42.2,33.0,24.6,76,48,19,30.00,29.85,15,4,15,0.00
2013-4-9,78.3,55.1,43.7,56.1,37.3,29.1,98,56,21,30.00,29.74,12,4,12,0.08
2013-4-10,68.7,52.4,45.3,47.7,38.0,30.4,92,62,26,29.88,29.74,12,4,12,0.31
2013-4-11,58.8,48.5,45.3,46.7,36.0,21.3,98,67,31,30.00,29.68,13,4,13,0.36
2013-4-12,45.3,42.8,38.5,42.6,30.6,17.6,98,67,36,30.03,29.56,25,8,25,0.87
2013-4-13,59.7,43.6,37.4,42.1,34.4,26.8,98,73,31,29.83,29.53,17,5,17,0.04
2013-4-14,60.3,47.8,35.2,45.2,27.7,14.3,93,52,25,30.06,29.83,16,3,16,0.00
2013-4-15,61.9,45.3,32.7,35.1,25.9,16.8,75,49,27,30.30,30.06,9,2,9,0.00
2013-4-16,59.2,47.9,30.9,45.7,32.6,24.0,95,57,37,30.30,30.00,21,5,21,0.00
2013-4-17,74.5,56.3,36.9,54.6,35.1,11.8,94,53,11,30.21,29.97,12,3,12,0.00
2013-4-18,61.7,48.2,31.1,45.3,27.3,19.6,85,49,24,30.30,30.06,17,4,17,0.00
2013-4-19,74.5,62.4,51.3,64.1,56.0,45.6,98,82,42,30.06,29.65,22,7,22,0.00
2013-4-20,65.3,55.1,39.7,64.4,44.0,27.3,98,70,35,30.06,29.56,23,5,23,0.28
2013-4-21,61.0,45.4,31.1,32.0,16.0,9.6,74,33,16,30.56,30.06,17,5,17,0.00
2013-4-22,62.2,43.3,28.0,30.5,20.7,14.2,78,44,16,30.59,30.42,18,6,18,0.00
2013-4-23,46.9,44.7,41.7,45.1,41.5,24.4,98,89,51,30.42,29.88,15,7,15,0.98
2013-4-24,68.2,51.4,43.9,50.7,42.2,33.0,98,75,31,29.88,29.71,26,8,26,0.63
2013-4-25,70.9,54.8,37.9,54.5,40.0,26.9,94,62,22,30.12,29.80,14,4,14,0.04
2013-4-26,72.3,50.6,33.3,44.8,27.9,18.8,91,49,17,30.30,30.12,12,2,12,0.00
2013-4-27,68.0,50.0,33.6,45.1,25.3,14.5,89,46,15,30.30,30.18,10,2,10,0.00
2013-4-28,70.9,51.3,32.5,44.1,28.3,16.8,80,47,14,30.24,30.15,12,2,12,0.00
2013-4-29,68.9,51.7,38.1,46.6,26.2,6.6,83,45,10,30.18,30.12,10,2,10,0.00
2013-4-30,73.4,51.0,33.1,43.2,20.1,8.3,82,38,11,30.24,30.15,13,2,13,0.00
2013-5-1,74.8,52.4,33.6,45.2,31.2,19.7,84,48,22,30.36,30.24,12,3,12,0.00
2013-5-2,84.4,55.5,35.4,48.8,29.2,14.8,83,48,8,30.33,30.24,17,3,17,0.00
2013-5-3,54.7,47.0,35.1,39.6,34.0,26.6,88,62,41,30.36,30.24,15,4,15,0.00
2013-5-4,63.9,49.3,38.7,43.0,32.6,24.4,96,58,25,30.24,30.18,18,5,18,0.00
2013-5-5,69.8,52.0,38.1,44.0,34.7,27.0,95,58,23,30.18,30.12,13,4,13,0.00
2013-5-6,72.9,54.4,44.6,48.2,42.1,34.9,98,70,26,30.15,30.06,12,3,12,0.00
2013-5-7,77.0,60.6,48.0,57.7,50.4,44.9,98,74,33,30.06,30.00,10,2,10,0.00
2013-5-8,75.2,62.4,51.1,63.2,54.7,46.1,98,78,45,30.09,29.91,15,5,15,0.12
2013-5-9,74.5,62.7,56.3,62.2,56.9,50.2,98,83,44,29.91,29.77,8,2,8,0.04
2013-5-10,89.1,68.7,56.5,62.9,48.5,33.8,98,58,16,29.85,29.77,10,2,10,0.00
2013-5-11,69.8,63.1,58.1,64.0,57.4,47.3,98,84,46,29.83,29.62,13,4,13,0.59
2013-5-12,67.5,60.7,49.5,62.0,53.4,28.3,98,82,28,29.68,29.47,13,3,13,0.16
2013-5-13,66.4,52.9,35.6,38.9,23.8,15.7,74,36,15,29.88,29.68,13,3,13,0.00
2013-5-14,68.7,54.0,45.7,30.1,22.9,11.0,50,31,12,29.91,29.85,15,4,15,0.00
2013-5-15,69.3,52.8,32.9,53.7,30.7,12.0,82,48,12,29.94,29.59,15,4,15,0.00
2013-5-16,82.8,64.9,49.8,53.7,37.4,22.6,89,44,11,29.65,29.53,14,4,14,0.00
2013-5-17,74.5,59.8,46.0,41.8,31.9,19.9,72,39,16,30.09,29.65,15,4,15,0.00
2013-5-18,75.2,57.4,39.2,48.8,36.0,28.9,80,50,20,30.18,30.09,9,2,9,0.00
2013-5-19,78.3,61.7,45.5,56.1,40.7,29.5,96,54,20,30.24,30.12,10,3,10,0.04
2013-5-20,80.1,65.5,57.2,61.5,55.2,46.9,98,74,32,30.12,29.83,12,3,12,0.12
2013-5-21,88.9,66.9,55.9,63.5,55.0,48.1,94,71,29,29.85,29.74,13,3,13,0.00
2013-5-22,75.2,62.3,53.8,62.9,56.0,49.5,98,82,43,29.85,29.80,13,3,13,0.00
2013-5-23,66.6,61.9,61.3,66.0,61.3,60.8,98,98,98,29.85,29.77,21,5,21,0.08
2013-5-24,68.0,62.0,57.4,67.4,61.4,56.8,98,98,97,29.77,29.56,14,5,14,0.59
2013-5-25,68.0,57.1,47.5,67.4,52.6,42.3,98,86,60,29.62,29.56,17,6,17,0.12
2013-5-26,68.0,55.8,45.1,67.4,38.2,26.6,98,56,26,29.97,29.56,15,5,15,0.00
2013-5-27,82.2,63.5,46.9,67.4,38.5,16.5,98,49,9,30.06,29.56,14,3,14,0.00
2013-5-28,79.0,62.6,42.1,67.4,43.8,28.6,98,57,18,30.12,29.56,10,2,10,0.00
2013-5-29,69.4,63.0,58.5,67.4,60.0,55.1,98,91,64,30.09,29.56,16,3,16,0.20
2013-5-30,85.1,66.0,62.4,64.9,60.0,50.4,98,85,31,29.97,29.88,8,2,8,0.64
2013-5-31,101.5,78.6,60.6,68.8,52.1,42.1,86,48,15,29.97,29.85,10,2,10,0.00
2013-6-1,93.4,74.4,60.8,62.8,54.6,26.8,85,56,20,29.88,29.83,15,3,15,0.00
2013-6-2,87.6,71.5,64.8,65.4,58.7,50.2,96,68,30,29.83,29.71,14,5,14,0.00
2013-6-3,68.4,67.4,65.7,67.8,66.8,64.8,98,98,96,29.77,29.68,13,3,13,0.43
2013-6-4,82.2,66.5,50.9,67.4,43.0,27.2,98,51,17,29.94,29.68,13,3,13,0.00
2013-6-5,80.4,61.8,45.1,55.6,38.2,27.4,88,49,17,30.06,29.94,8,2,8,0.00
2013-6-6,78.6,63.1,48.6,55.3,42.8,34.2,84,52,21,30.09,29.97,13,3,13,0.00
2013-6-7,67.3,59.9,58.1,66.7,56.1,44.0,98,88,56,29.97,29.65,13,5,13,0.00
2013-6-8,61.9,61.9,61.9,61.3,61.3,61.3,98,98,98,29.88,29.44,17,5,17,0.00
2013-6-9,91.4,72.0,56.5,64.6,50.7,39.4,98,56,18,30.03,29.88,10,2,10,0.00
2013-6-10,77.7,64.7,55.0,61.8,53.0,44.7,98,69,33,30.06,29.88,12,3,12,0.59
2013-6-11,63.9,58.8,57.7,62.9,58.2,57.2,98,98,98,29.88,29.41,15,4,15,1.10
2013-6-12,79.5,63.7,57.7,57.2,51.8,38.0,98,71,25,29.68,29.44,18,5,18,0.00
2013-6-13,71.2,61.0,53.1,59.9,50.9,43.3,97,71,39,29.71,29.50,13,3,13,0.00
2013-6-14,66.6,58.9,52.0,56.3,49.9,39.5,98,75,39,29.65,29.44,17,6,17,0.00
2013-6-15,89.8,68.9,52.2,58.4,43.3,20.3,97,51,10,29.83,29.62,13,3,13,0.00
2013-6-16,83.7,68.5,54.3,61.7,49.9,35.5,89,58,19,29.83,29.65,13,2,13,0.39
2013-6-17,91.8,73.3,59.5,65.6,55.7,45.4,90,60,22,29.80,29.68,15,2,15,0.00
2013-6-18,88.0,68.9,57.7,67.3,55.7,47.6,92,67,28,29.80,29.74,9,2,9,0.00
2013-6-19,80.2,66.1,54.3,60.0,48.2,35.6,97,58,25,30.03,29.71,13,4,13,0.00
2013-6-20,87.8,66.4,48.4,60.9,45.1,35.0,90,53,20,30.18,30.03,10,2,8,0.00
2013-6-21,85.8,69.6,57.2,52.9,43.2,35.2,77,43,20,30.18,30.09,13,2,13,0.00
2013-6-22,89.1,71.4,61.2,62.1,49.5,35.2,90,52,18,30.12,30.03,10,2,9,0.00
2013-6-23,90.9,75.0,64.9,69.9,61.0,50.5,96,68,26,30.06,29.94,14,3,14,0.00
2013-6-24,97.0,79.6,69.6,70.6,64.1,55.7,98,65,28,29.94,29.77,17,3,17,0.00
2013-6-25,99.3,79.9,69.6,66.6,60.4,47.9,83,57,18,29.80,29.65,13,2,13,0.00
2013-6-26,98.8,80.5,69.4,70.6,63.3,54.8,89,62,26,29.74,29.62,13,1,13,0.00
2013-6-27,87.3,71.9,67.5,69.4,65.9,57.3,98,83,39,29.74,29.62,9,1,9,0.00
2013-6-28,72.7,72.1,70.0,71.9,71.5,69.3,98,98,97,29.65,29.44,15,4,15,0.39
2013-6-29,72.5,72.5,72.5,71.9,71.9,71.9,98,98,98,29.65,29.44,12,4,12,0.00
2013-6-30,80.2,74.3,72.5,77.1,72.4,65.2,98,94,61,29.85,29.62,9,3,9,0.00
2013-7-1,78.6,78.6,78.6,77.1,77.1,77.1,95,95,95,30.00,29.85,10,3,10,0.00
2013-7-2,78.6,78.6,78.6,77.1,77.1,77.1,95,95,95,30.09,30.00,13,3,13,0.00
2013-7-3,95.5,81.3,78.6,77.3,74.6,61.3,95,84,34,30.12,30.06,10,4,10,0.00
2013-7-4,79.2,79.2,79.2,77.3,77.3,77.3,94,94,94,30.12,30.03,12,3,12,0.00
2013-7-5,100.6,85.3,75.2,77.3,69.7,58.2,94,66,26,30.06,29.94,10,3,10,0.00
2013-7-6,100.9,84.7,73.8,83.3,69.2,59.9,96,65,28,29.97,29.85,8,2,8,0.00
2013-7-7,102.0,82.9,70.3,76.3,66.4,58.2,92,63,26,29.91,29.83,7,1,7,0.00
2013-7-8,96.6,81.5,72.1,77.3,66.8,57.0,98,67,29,30.00,29.83,8,2,8,0.00
2013-7-9,79.2,72.9,69.3,69.9,67.3,62.3,97,83,58,30.12,29.94,8,1,8,0.00
2013-7-10,86.2,78.3,72.5,79.3,75.3,69.2,98,91,60,30.30,29.91,12,3,12,0.00
2013-7-11,79.2,79.2,79.2,77.3,77.3,77.3,94,94,94,30.89,30.03,10,2,10,0.12
2013-7-12,79.2,79.2,79.2,77.3,77.3,77.3,94,94,94,31.01,30.56,12,3,12,0.00
2013-7-13,85.1,83.5,75.9,83.8,81.8,72.6,96,95,81,31.01,30.98,6,1,6,0.00
2013-7-14,84.0,84.0,84.0,82.8,82.8,82.8,96,96,96,31.01,31.01,12,2,12,0.00
2013-7-15,103.5,84.5,74.8,82.8,72.5,50.8,96,74,18,31.01,31.01,6,1,6,0.00
2013-7-16,98.6,82.4,70.9,70.4,62.3,53.6,91,57,24,31.01,31.01,8,2,8,0.00
2013-7-17,97.3,80.1,66.2,75.0,61.9,51.2,90,59,22,31.01,31.01,8,1,8,0.00
2013-7-18,100.0,84.1,75.0,75.3,66.8,56.6,88,62,26,31.01,31.01,10,2,10,0.00
2013-7-19,99.5,84.2,75.7,74.8,70.7,61.2,94,68,29,31.01,31.01,15,3,15,0.00
2013-7-20,79.3,77.3,77.0,75.6,74.2,72.5,92,90,80,31.01,31.01,13,3,13,0.00
2013-7-21,94.8,78.6,70.7,74.2,67.9,58.2,92,73,31,31.01,31.01,8,1,8,0.00
2013-7-22,91.6,76.9,69.4,72.2,66.7,54.1,95,75,30,31.01,31.01,9,2,9,1.10
2013-7-23,86.0,81.8,73.2,84.4,79.7,53.8,97,94,38,31.01,31.01,10,3,9,0.00
2013-7-24,86.0,86.0,86.0,84.4,84.4,84.4,95,95,95,31.01,31.01,8,1,8,0.00
2013-7-25,86.0,86.0,86.0,84.4,84.4,84.4,95,95,95,31.01,31.01,13,5,13,0.00
2013-7-26,86.0,86.0,86.0,84.4,84.4,84.4,95,95,95,31.01,31.01,22,5,22,0.00
2013-7-27,86.0,86.0,86.0,84.4,84.4,84.4,95,95,95,31.01,31.01,8,1,8,0.00
2013-7-28,86.0,72.4,0.0,84.4,64.9,0.0,95,70,47,31.01,31.01,9,1,10,0.00
2013-7-29,90.7,76.8,68.5,74.3,69.6,63.1,98,81,41,31.01,31.01,7,0,8,0.00
2013-7-30,93.4,78.4,67.3,71.2,60.0,45.4,94,61,21,31.01,31.01,10,1,10,0.00
2013-7-31,91.2,72.8,60.3,68.8,55.8,43.3,91,60,22,31.01,31.01,8,0,9,0.00
2013-8-1,89.1,72.6,61.0,70.2,58.3,49.0,91,66,27,31.01,31.01,8,1,9,0.00
2013-8-2,90.7,73.4,66.6,73.0,65.0,55.7,98,78,31,31.01,31.01,9,1,9,0.00
2013-8-3,76.6,72.0,68.0,70.6,66.1,58.4,96,82,57,31.01,31.01,10,1,10,0.00
2013-8-4,91.2,73.1,60.6,67.8,57.1,46.7,91,64,23,31.01,31.01,8,1,8,0.00
2013-8-5,88.3,67.6,51.4,58.8,49.4,30.3,96,62,13,31.01,29.95,10,2,11,0.32
2013-8-6,83.1,64.7,46.6,64.9,54.0,46.3,99,73,40,30.09,29.95,11,1,11,0.00
2013-8-7,83.7,65.8,0.0,66.3,53.4,45.9,99,69,32,30.15,30.07,11,1,11,0.08
2013-8-8,84.6,71.4,55.4,70.7,64.4,53.7,97,80,55,30.11,30.01,10,2,10,0.00
2013-8-9,76.5,73.6,70.3,74.2,71.6,68.6,98,93,86,30.04,29.76,19,4,19,0.34
2013-8-10,90.0,76.9,60.1,72.2,66.0,58.7,98,73,39,29.96,29.76,11,2,11,0.00
2013-8-11,86.5,69.4,54.5,69.0,56.6,51.4,98,69,35,30.04,29.95,7,1,7,0.00
2013-8-12,83.7,69.2,54.5,68.5,62.3,53.6,98,81,54,30.07,29.95,6,1,6,0.00
2013-8-13,75.2,69.6,65.5,70.8,67.2,64.6,98,92,79,29.96,29.70,4,1,4,0.01
2013-8-14,80.8,68.6,59.9,64.6,56.8,49.7,98,70,35,29.97,29.68,15,2,15,0.02
2013-8-15,84.2,69.3,55.4,56.5,52.7,45.1,86,60,29,30.16,29.97,8,2,8,0.00
2013-8-16,85.5,69.5,52.0,65.3,55.2,49.2,95,66,32,30.23,30.13,8,1,8,0.00
2013-8-17,84.0,69.1,53.6,65.8,59.3,52.2,97,74,48,30.30,30.21,5,1,5,0.00
2013-8-18,79.7,66.0,54.7,66.5,59.3,53.0,96,81,49,30.30,30.10,4,1,4,0.00
2013-8-19,86.9,69.4,54.9,67.2,61.7,54.0,98,79,45,30.11,29.95,7,1,7,0.00
2013-8-20,90.9,75.4,60.4,72.6,63.8,57.9,96,71,40,30.10,29.97,10,1,10,0.00
2013-8-21,94.1,75.3,58.5,71.6,62.7,56.8,96,69,37,30.15,30.05,7,1,8,0.00
2013-8-22,86.5,75.2,69.1,71.7,68.7,64.9,95,81,59,30.06,29.85,103,2,103,0.19
2013-8-23,81.0,71.6,57.4,68.4,61.3,54.8,94,72,41,30.09,29.81,14,2,14,0.00
2013-8-24,77.7,64.6,46.6,60.1,52.6,44.4,95,69,36,30.33,30.09,13,2,13,0.00
2013-8-25,88.5,66.3,43.7,63.4,51.6,42.4,97,66,27,30.35,30.21,8,1,8,0.00
2013-8-26,80.6,71.0,57.0,65.8,61.9,53.4,89,74,53,30.22,29.89,11,2,11,0.00
2013-8-27,77.0,70.5,67.3,70.8,67.5,65.7,96,90,76,29.89,29.83,7,1,7,0.51
2013-8-28,83.5,70.2,65.1,68.0,65.3,63.3,99,86,56,29.94,29.85,7,1,7,0.00
2013-8-29,70.7,65.6,57.9,65.6,62.0,55.3,97,88,75,30.04,29.93,8,2,8,0.00
2013-8-30,80.6,67.9,55.0,68.3,62.6,53.6,99,84,64,30.01,29.87,8,2,10,0.39
2013-8-31,79.9,72.6,68.2,72.2,70.2,67.9,99,92,75,29.89,29.84,8,3,8,0.00
2013-9-1,79.7,73.3,70.0,75.8,71.8,69.4,99,95,83,29.92,29.84,9,2,9,0.83
2013-9-2,84.6,74.2,71.2,75.7,72.0,70.7,99,93,73,29.90,29.74,10,2,10,0.02
2013-9-3,86.7,72.6,66.4,74.1,70.2,66.1,99,93,63,29.83,29.71,14,2,14,1.84
2013-9-4,84.2,69.1,57.9,67.2,61.4,57.7,99,80,47,29.94,29.80,4,0,4,0.00
2013-9-5,75.6,60.6,47.1,70.9,57.4,46.9,99,90,67,30.12,29.89,10,1,10,0.02
2013-9-6,75.9,57.1,43.0,61.9,48.5,42.5,99,77,41,30.23,30.11,2,0,2,0.00
2013-9-7,78.3,60.2,39.4,61.4,50.5,39.1,99,74,43,30.12,29.89,7,0,7,0.00
2013-9-8,80.4,68.2,57.4,66.2,57.4,43.2,96,70,51,30.08,29.74,4,0,4,0.00
2013-9-9,73.6,58.0,42.3,58.1,47.6,42.0,99,73,35,30.25,30.07,2,0,2,0.00
2013-9-10,74.8,64.4,49.5,68.2,59.6,49.2,99,85,65,30.20,30.07,6,0,6,0.00
2013-9-11,90.9,77.3,69.3,75.1,71.0,68.0,99,82,57,30.12,30.00,8,2,8,0.00
2013-9-12,84.9,74.7,69.1,72.6,70.2,68.4,99,86,66,30.03,29.72,11,2,11,0.00
2013-9-13,79.5,70.7,61.7,72.3,67.8,59.2,99,91,68,29.73,29.59,9,2,9,0.13
2013-9-14,77.2,63.3,50.4,59.8,56.8,50.1,99,81,53,30.05,29.73,6,1,6,0.00
2013-9-15,76.3,58.8,46.8,61.6,50.8,46.5,99,79,44,30.17,30.05,7,1,7,0.00
2013-9-16,74.5,57.2,46.6,61.6,52.7,45.6,99,86,47,30.19,30.02,17,1,17,0.02
2013-9-17,61.9,53.0,36.1,46.8,41.4,35.1,99,67,43,30.39,30.19,12,4,14,0.00
2013-9-18,78.4,53.8,34.7,57.2,42.2,34.2,99,73,26,30.33,30.15,6,1,6,0.00
2013-9-19,82.9,61.2,40.6,62.3,51.1,40.4,99,75,32,30.16,30.05,6,1,6,0.00
2013-9-20,87.1,62.1,44.6,63.7,51.9,43.8,99,75,35,30.09,30.02,8,1,8,0.00
2013-9-21,78.1,63.9,46.9,66.7,58.9,46.7,99,85,59,30.06,29.78,13,3,13,0.00
2013-9-22,77.2,66.8,50.2,68.0,61.9,48.5,99,85,58,29.81,29.66,12,3,12,0.09
2013-9-23,68.9,54.8,43.9,50.2,45.4,41.7,96,73,45,29.98,29.80,14,2,14,0.00
2013-9-24,68.0,52.0,39.6,49.4,44.3,39.3,99,78,45,29.98,29.82,10,2,10,0.00
2013-9-25,69.6,53.9,38.3,54.9,46.4,38.0,99,79,46,29.97,29.87,8,1,8,0.00
2013-9-26,66.4,55.1,44.8,52.1,49.1,43.7,99,82,51,30.10,29.96,13,2,13,0.00
2013-9-27,65.7,57.3,43.5,55.5,52.2,42.8,98,84,65,30.25,30.09,11,2,11,0.00
2013-9-28,75.2,54.6,40.5,62.0,49.9,40.2,99,86,57,30.31,30.23,8,1,8,0.00
2013-9-29,72.1,54.3,37.2,57.3,48.7,36.5,99,84,52,30.26,30.09,7,1,7,0.00
2013-9-30,70.2,58.4,45.5,58.6,54.4,44.7,99,87,64,30.09,29.95,11,2,11,0.00
2013-10-1,77.9,56.7,45.5,58.3,49.8,44.7,99,82,38,29.95,29.85,9,1,9,0.00
2013-10-2,82.2,64.1,47.3,63.8,56.5,47.0,99,79,48,29.95,29.82,8,1,8,0.00
2013-10-3,83.5,64.2,48.7,59.6,53.6,48.3,99,73,31,30.08,29.94,7,1,7,0.00
2013-10-4,77.0,57.1,44.1,62.4,53.4,43.5,99,89,53,30.08,30.02,6,0,6,0.01
2013-10-5,72.3,60.0,51.8,64.5,57.5,51.3,99,92,66,30.12,30.05,4,0,4,0.07
2013-10-6,63.9,58.3,52.5,61.3,56.7,52.0,99,95,73,30.20,30.11,8,1,8,0.13
2013-10-7,74.8,68.6,61.9,70.4,66.9,60.7,99,94,85,30.13,29.87,16,5,16,0.19
2013-10-8,68.2,57.6,45.7,66.1,50.5,44.9,99,79,44,30.34,29.89,14,2,14,0.09
2013-10-9,65.1,54.3,43.7,48.2,45.3,41.5,99,73,51,30.43,30.33,14,3,14,0.00
2013-10-10,71.8,57.5,43.3,57.9,53.7,42.8,99,88,61,30.34,30.13,9,2,9,0.00
2013-10-11,70.5,59.9,50.0,60.0,56.4,49.4,99,89,65,30.14,30.07,11,3,11,0.00
2013-10-12,70.5,58.9,51.8,58.9,53.7,48.7,99,83,62,30.36,30.11,4,0,4,0.00
2013-10-13,65.8,53.1,35.1,49.1,45.3,33.5,97,77,50,30.42,30.33,0,0,0,0.00
2013-10-14,68.4,47.0,31.5,51.0,41.1,30.7,99,83,48,30.40,30.27,0,0,0,0.00
2013-10-15,72.3,52.5,36.0,53.8,45.5,34.9,99,81,43,30.27,30.16,0,0,0,0.02
2013-10-16,61.0,54.3,41.5,59.6,53.6,41.3,99,97,92,30.16,29.90,0,0,0,1.04
2013-10-17,73.4,62.0,55.9,61.8,58.6,55.7,99,89,64,29.91,29.75,0,0,0,2.67
2013-10-18,73.4,61.3,40.6,63.7,53.3,39.9,98,78,42,29.93,29.64,0,0,0,3.60
2013-10-19,68.0,51.5,34.5,54.4,43.0,33.8,99,76,39,30.00,29.77,0,0,0,0.45
2013-10-20,65.3,52.8,33.3,55.5,41.5,30.8,99,71,32,30.03,29.70,0,0,0,1.05
2013-10-21,68.5,46.8,29.7,50.0,37.2,28.7,99,75,34,30.12,30.02,0,0,0,0.04
2013-10-22,70.5,53.8,37.2,55.7,47.0,35.7,99,81,52,30.02,29.71,0,0,0,0.27
2013-10-23,55.0,46.1,35.2,46.1,39.7,32.1,99,80,53,29.79,29.57,0,0,0,0.01
2013-10-24,55.6,44.1,37.0,41.0,32.7,23.6,99,68,33,29.89,29.62,0,0,0,0.61
2013-10-25,55.4,40.2,27.1,34.9,28.9,22.4,89,66,36,30.17,29.89,0,0,0,0.46
2013-10-26,57.6,42.3,23.5,41.4,31.1,20.0,91,67,45,30.17,29.88,0,0,0,0.77
2013-10-27,55.2,46.8,43.7,42.4,39.3,34.0,87,76,52,29.88,29.82,0,0,0,0.00
2013-10-28,44.6,44.6,44.6,40.4,40.4,40.4,85,85,85,29.88,29.88,0,0,0,0.00
2013-10-29,44.6,44.6,44.6,40.4,40.4,40.4,85,85,85,29.88,29.88,0,0,0,0.00
2013-10-30,44.6,44.6,44.6,40.4,40.4,40.4,85,85,85,29.88,29.88,0,0,0,0.00
2013-10-31,44.6,44.6,44.6,40.4,40.4,40.4,85,85,85,29.88,29.88,0,0,0,0.00
2013-11-1,44.6,44.6,44.6,40.4,40.4,40.4,85,85,85,29.88,29.88,0,0,0,0.00
2013-11-2,44.6,44.6,44.6,40.4,40.4,40.4,85,85,85,29.88,29.88,0,0,0,0.00
2013-11-3,44.6,44.6,44.6,40.4,40.4,40.4,85,85,85,29.88,29.88,0,0,0,0.00
2013-11-4,44.6,44.6,44.6,40.4,40.4,40.4,85,85,85,29.88,29.88,0,0,0,0.00
2013-11-5,44.6,44.6,44.6,40.4,40.4,40.4,85,85,85,29.88,29.88,0,0,0,0.00
2013-11-6,44.6,44.6,44.6,40.4,40.4,40.4,85,85,85,29.88,29.88,0,0,0,0.00
2013-11-7,44.6,44.6,44.6,40.4,40.4,40.4,85,85,85,29.88,29.88,0,0,0,0.00
2013-11-8,44.6,44.6,44.6,40.4,40.4,40.4,85,85,85,29.88,29.88,0,0,0,0.00
2013-11-9,46.0,41.0,32.0,40.4,27.3,16.9,85,61,32,30.30,29.88,0,0,0,15.47
2013-11-10,59.9,46.0,33.6,47.2,36.8,26.6,92,71,50,30.16,29.81,0,0,0,0.05
2013-11-11,53.1,46.7,38.8,41.8,30.3,23.9,66,54,35,30.18,29.96,0,0,0,0.00
2013-11-12,53.2,37.5,27.0,43.4,30.2,18.5,89,76,53,30.25,29.96,0,0,0,0.00
2013-11-13,38.5,29.2,21.9,21.9,13.5,6.7,70,52,29,30.35,30.24,0,0,0,0.00
2013-11-14,50.4,41.9,23.2,32.8,24.6,11.9,69,52,26,30.29,30.14,0,0,0,0.00
2013-11-15,60.3,50.7,39.9,46.6,37.8,28.1,89,63,34,30.32,30.23,0,0,0,0.01
2013-11-16,60.3,45.1,29.1,42.6,33.0,24.6,93,66,29,30.42,30.30,0,0,0,0.01
2013-11-17,58.6,47.4,29.1,56.0,43.3,25.5,97,86,59,30.41,29.98,0,0,0,0.35
2013-11-18,64.2,56.6,39.7,61.9,50.8,35.9,98,83,52,29.98,29.67,0,0,0,1.25
2013-11-19,46.2,40.0,33.1,38.3,22.2,14.9,86,50,31,30.35,29.76,0,0,0,0.05
2013-11-20,45.0,31.4,21.2,22.4,16.3,12.7,78,54,36,30.57,29.99,16,2,16,0.01
2013-11-21,52.9,33.2,19.2,34.1,24.2,15.2,92,72,40,30.13,29.90,8,1,8,0.00
2013-11-22,47.8,43.5,32.4,47.6,42.2,27.8,99,95,83,29.90,29.65,2,0,2,0.07
2013-11-23,49.5,43.4,31.5,47.2,27.7,9.6,99,59,26,30.01,29.65,22,3,22,0.14
2013-11-24,31.5,25.4,21.0,14.0,-3.7,-12.0,49,29,19,30.29,29.91,28,10,28,0.06
2013-11-25,30.7,22.2,16.2,10.5,-6.3,-14.4,65,30,18,30.51,30.29,22,4,22,0.00
2013-11-26,47.7,40.9,20.7,47.2,32.3,10.5,99,73,49,30.47,30.17,13,2,13,0.09
2013-11-27,60.3,53.4,39.9,60.0,52.9,-2.5,99,98,11,30.18,29.28,32,10,32,1.71
2013-11-28,39.9,32.4,24.1,38.3,14.7,2.8,94,49,28,30.56,29.60,21,6,21,0.02
2013-11-29,38.7,28.0,20.7,13.0,8.5,1.6,67,45,23,30.84,30.56,11,2,11,0.00
2013-11-30,40.1,27.6,16.7,26.5,13.9,6.0,83,58,33,30.88,30.58,8,2,8,0.00
2013-12-1,47.3,43.7,35.8,47.0,39.4,26.3,99,85,68,30.58,30.08,16,5,16,0.01
2013-12-2,46.4,40.7,38.8,46.1,39.9,37.6,99,97,89,30.11,30.02,5,1,5,0.00
2013-12-3,43.0,38.4,28.8,40.0,37.0,28.5,99,95,83,30.06,29.94,13,3,13,0.00
2013-12-4,48.9,36.1,25.9,33.7,24.9,19.5,99,67,33,30.24,30.00,10,1,10,0.00
2013-12-5,57.0,46.1,28.9,56.5,42.2,21.7,98,86,73,30.15,29.89,15,2,15,0.00
2013-12-6,60.8,60.7,57.2,60.2,60.1,56.6,98,98,98,30.03,29.83,13,2,13,0.00
2013-12-7,60.8,60.8,60.8,60.2,60.2,60.2,98,98,98,30.36,29.97,13,3,13,0.00
2013-12-8,60.8,33.9,26.6,60.2,14.5,9.5,98,45,38,30.50,30.36,8,2,8,0.00
2013-12-9,51.3,41.6,34.9,49.3,38.0,15.8,98,88,44,30.42,29.80,15,2,17,0.26
2013-12-10,36.9,32.3,27.3,34.2,30.9,24.2,97,94,86,30.12,29.94,8,1,8,0.00
2013-12-11,35.2,28.9,19.9,21.9,16.8,13.4,93,61,44,30.42,30.24,8,2,9,0.00
2013-12-12,28.9,19.8,6.1,14.2,2.7,-10.3,72,48,24,30.42,30.27,13,2,13,0.00
2013-12-13,32.2,22.2,6.1,12.5,6.6,-10.3,78,51,41,30.50,30.15,14,2,16,0.00
2013-12-14,32.0,23.9,17.8,31.5,15.7,4.4,98,72,50,30.71,30.24,15,3,15,0.00
2013-12-15,50.9,35.2,25.9,50.4,32.8,19.2,98,91,65,30.27,29.41,22,4,24,1.20
2013-12-16,33.6,24.3,0.0,22.8,9.9,-1.6,88,56,35,30.33,29.89,16,2,16,0.00
2013-12-17,39.4,22.7,6.1,38.9,14.9,-5.6,98,73,47,30.42,29.97,12,2,16,0.13
2013-12-18,35.6,30.5,22.3,35.1,22.7,14.4,98,75,51,30.24,29.89,15,3,15,0.04
2013-12-19,45.7,38.2,25.3,33.8,27.1,17.6,81,64,50,30.30,30.09,12,2,12,0.00
2013-12-20,54.9,42.5,27.3,47.9,35.4,23.5,93,77,52,30.30,30.09,9,2,11,0.00
2013-12-21,59.5,54.3,47.5,56.0,50.6,46.6,98,88,68,30.15,30.06,10,3,12,0.00
2013-12-22,61.0,55.2,43.3,60.1,54.1,42.3,98,96,83,30.15,30.00,13,3,13,0.00
2013-12-23,45.3,41.9,36.7,44.4,41.3,36.2,98,98,95,30.21,30.06,8,1,8,0.50
2013-12-24,39.9,33.9,27.0,39.4,25.2,14.6,98,71,51,30.33,30.12,12,3,12,0.12
2013-12-25,27.0,21.5,17.2,16.6,7.1,3.1,67,54,43,30.71,30.30,12,2,13,0.00
2013-12-26,41.2,30.2,14.9,36.7,25.4,6.1,98,83,62,30.62,30.18,13,2,13,0.08
2013-12-27,38.1,28.2,18.3,23.8,18.1,13.2,87,67,45,30.42,30.30,11,2,15,0.00
2013-12-28,48.6,32.3,14.2,35.0,23.7,10.2,98,73,48,30.39,30.15,9,2,9,0.00
2013-12-29,56.3,39.2,24.8,55.7,37.2,22.2,98,93,72,30.18,29.41,22,2,22,0.91
2013-12-30,43.0,35.5,25.9,39.9,26.7,11.4,98,73,44,30.24,29.56,14,3,14,0.00
2013-12-31,28.6,21.6,10.4,17.2,6.3,-1.5,90,52,41,30.30,30.12,11,2,11,0.00
2014-1-1,29.8,22.4,15.3,12.1,6.1,0.3,69,50,39,30.53,30.30,21,2,21,0.00
2014-1-2,32.4,27.4,21.7,31.6,24.6,11.8,98,90,63,30.45,29.80,17,4,17,0.00